Starlink 5880

operational
NORAD ID: 57220 Int'l Des: 2023-094 Owner: SPXS Country: US Constellation: starlink
LEOCIRCULAR

About Starlink 5880

Description loading...

Live Position

Loading 3D Globe...

Upcoming Passes

Altitude History

Altitude vs Time

uPlot chart will show altitude changes over time

Two-Line Element Set

1 57220U 23094C 25351.69251355 -.00000510 00000-0 -22696-4 0 9993
2 57220 43.0028 116.0336 0001245 265.2704 94.7997 15.02539463134789
Epoch: Dec 17, 2025 • Age: 17 hours

Current Status

Altitude 571.0 km
Velocity 7.58 km/s
Sub-Earth Point -41.62°S, 166.01°E
Launch Date Jul 7, 2023
Age 2.4 years
Type internet

Technical Details

Classification Payload
Mass 305.00 kg
Dry Mass 290.00 kg
Total Mass 305.00 kg
Length 0.20 m
Diameter 2.80 m
Span 9.00 m
Shape Box + pan
Manufacturer SPXS
Bus Type Starlink
Phase Status In Orbit
Owner/State SPXS/US

Large Constellations

Loading constellations...